Showing default

YINHE-1, 45024

Orbit data source: Space-Track

YINHE-1, 45024 is a payload satellite owned by Yinhe (CN) in LEO that was launched on Thu, 16 Jan 2020 UTC via a KUAIZHOU-1A launch vehicle from the Jiuquan Satellite Launch Center, China (JSC). Payload-class satellites include a variety of spacecraft equipped with specific instruments for various scientific and technological missions. These include communications satellites like Starlink; space stations such as the ISS; scientific satellites like the Hubble; Earth observation satellites from companies like Planet Labs, Umbra, and HawkEye 360; GPS; miniature CubeSats for education and research; and military/defense satellites.

Loading next visibility...
Identifier
45024, 2020-004A
Orbit
LEO
Country
Flag of CNCN / PRC
Related business
Manufacturer
Yinhe
Mission
Operational Commercial Communications
Bus & Motor
YH, Unknown motor
Mass
227 kg wet, ~200 kg dry
Launch date (UTC)
2020-01-16 (6 years ago)
Launch vehicle
KUAIZHOU-1A
Launch site
Jiuquan Satellite Launch Center, China (JSC)
Object type
Payload
Rocket body
Debris
Shape & HBR
Box + 1 Pan, Unknown HBR
Radar Cross Section
3.313 m², Large (>1 m²)

Expand to show TLE details & history
Last TLE update: 6 hours ago

TLE from 6 hours ago
0 YINHE-1
1 45024U 20004A   25258.97087850  .00000737  00000-0  97147-4 0  9996
2 45024  86.3911 238.6328 0011415 235.0910 124.9239 14.78599367305398
Epoch: 2025-09-15T23:18Z
TLE epoch observation values (Epoch: 2025-09-15T23:18:03.902Z)
Latitude
0.00004°
Longitude
-106.05134°
Altitude
641.452 km
Speed
7.535 km/s
True Right ascension
15h 54m 31s
True Declination
0° 00' 00"
Sunlit
Object was in daylight at epoch
Visualization orbit readout
Latitude
Unknown
Longitude
Unknown
Altitude
Unknown
Speed
Unknown
Apparent Right ascension
Unknown
Apparent Declination
Unknown
Sunlit
N/A
Visualization observer readout
Local Sidereal Time
22:22:18
Azimuth
Unknown
Elevation
Unknown
Doppler factor
Unknown
Orbital elements
Apogee altitude
638.651 km
Perigee altitude
622.65 km
Semi-major axis
7,008.788 km
Eccentricity
0.00114
Inclination
86.3911°
RAAN
238.6328°
Arg. of periapsis
235.091°
True anomaly
125.03106°
Mean anomaly
124.9239°
Eccentric anomaly
124.97749°
Mean motion
3.69895 °/min
Orbital period
97.32 mins
BSTAR
0.000097147
Loading maneuver chart data...
Computing Atmospheric mass density...
Loading historical data...
Loading historical data...
Loading historical data...
Loading historical data...
Loading historical data...
Loading historical data...
Loading historical data...
Other satellites on launch #4 in the year 2020 (2020-01-16 UTC)

Documentation

Showing up to 5 results
|